Location: *
(52.2090°N, 4.1550°W)
Time: 08:47:50
(UTC+00:00)

Cosmos 1943 Rocket - Pass Details

Date: 19 July 2019
Orbit: 813 x 843 km, 71.0° (Epoch: 21 August)

Event Time Altitude Azimuth Distance (km) Brightness Sun altitude
Rises 23:00:04 0° 329° (NNW) 3,350 7.1 -14.8°
Reaches altitude 10° 23:02:59 10° 343° (NNW) 2,415 6.0 -15.0°
Maximum altitude 23:07:25 24° 37° (NE) 1,637 4.1 -15.2°
Drops below altitude 10° 23:11:51 10° 91° (E) 2,411 4.4 -15.4°
Enters shadow 23:14:29 - 104° (ESE) 3,256 5.0 -15.5°
